Flag Weather past 2 weeks in Rafsanjan, Iran

Now
68 °F

Scattered clouds.


Feels Like: 68 °F
Forecast: 56 / 70 °F
Wind: 9 mph from Southwest

Location: Kerman Airport

Current Time: Oct 31, 2014 at 1:00:33 PM

Latest Report: Oct 31, 2014 at 12:00 PM


Visibility: N/A

Pressure: 30.12 "Hg

Humidity: 26%

Dew point: 32 °F

Location of RafsanjanLocation

Historic Weather in Rafsanjan — Graph

°F

Rafsanjan temperature yesterday

Maximum temperature yesterday: 63 °F (at 10:00 AM)
Minimum temperature yesterday: 43 °F (at 2:30 AM)
Average temperature yesterday: 53 °F

Past Weeks' High & Low Weather Summary

 TemperatureHumidityPressure
High84 °F (Oct 16, 2:00 PM)75% (Oct 31, 5:30 AM)30.33 "Hg (Oct 31, 5:30 AM)
Low37 °F (Oct 24, 5:30 AM)4% (Oct 24, 2:00 PM)30.04 "Hg (Oct 18, 3:00 PM)
Average64 °F25%30.19 "Hg
* Reported Oct 16 11:30 AM — Oct 31 12:00 Noon, Rafsanjan, Weather by CustomWeather, © 2014

Note: Actual official high and low records may vary slightly from our data, if they occured in-between our weather recording intervals... More about our weather records

Advertising

Rafsanjan weather history for previous 24 hours

 ConditionsComfort  
Time TempWeatherWind HumidityBarometerVisibility
12:00 PM
Oct 31
68 °FScattered clouds.9 mph26%30.12 "HgN/A
11:30 AM68 °FPassing clouds.7 mph30%30.15 "HgN/A
11:00 AM68 °FPassing clouds.No wind30%30.18 "HgN/A
10:30 AM64 °FPassing clouds.No wind34%30.21 "HgN/A
10:00 AM64 °FPassing clouds.No wind34%30.21 "HgN/A
9:30 AM61 °FPassing clouds.No wind39%30.21 "HgN/A
9:00 AM61 °FPassing clouds.No wind39%30.21 "HgN/A
8:30 AM57 °FPassing clouds.No wind41%30.24 "HgN/A
8:00 AM54 °FPassing clouds.5 mph47%30.24 "HgN/A
7:30 AM43 °FPassing clouds.5 mph61%30.21 "HgN/A
7:00 AM45 °FPassing clouds.5 mph57%30.21 "HgN/A
5:30 AM37 °FPassing clouds.5 mph75%30.21 "HgN/A
4:30 AM39 °FClear.5 mph70%30.21 "Hg10 mi
3:30 AM43 °FClear.5 mph66%30.21 "Hg10 mi
2:30 AM43 °FClear.5 mph61%30.21 "Hg10 mi
1:30 AM45 °FClear.7 mph61%30.21 "Hg10 mi
12:30 AM45 °FPassing clouds.7 mph61%30.21 "HgN/A
11:30 PM
Oct 30
46 °FPassing clouds.No wind62%30.21 "HgN/A
10:30 PM48 °FPassing clouds.5 mph62%30.24 "HgN/A
9:30 PM48 °FPassing clouds.No wind71%30.24 "HgN/A
8:30 PM48 °FPassing clouds.5 mph66%30.21 "HgN/A
7:30 PM50 °FPassing clouds.5 mph67%30.21 "HgN/A
6:30 PM54 °FPassing clouds.5 mph51%30.21 "HgN/A
6:00 PM54 °FPassing clouds.5 mph44%30.21 "HgN/A
5:30 PM57 °FPassing clouds.9 mph39%30.18 "HgN/A
5:00 PM57 °FScattered clouds.5 mph36%30.18 "HgN/A
4:30 PM57 °FScattered clouds.7 mph39%30.18 "HgN/A
3:30 PM57 °FPartly sunny.9 mph39%30.18 "HgN/A
2:30 PM59 °FScattered clouds.14 mph34%30.18 "HgN/A
2:00 PM57 °FPartly sunny.14 mph39%30.18 "HgN/A
1:30 PM55 °FScattered clouds.16 mph38%30.18 "HgN/A
1:00 PM57 °FPartly sunny.18 mph36%30.18 "HgN/A
Weather by CustomWeather, © 2014

See weather overviewHow to use our weather pages